TimeEDT,TemperatureF,Dew PointF,Humidity,Sea Level PressureIn,VisibilityMPH,Wind Direction,Wind SpeedMPH,Gust SpeedMPH,PrecipitationIn,Events,Conditions,WindDirDegrees,DateUTC
12:15 AM,39.9,32.2,74,29.95,10.0,NW,8.1,-,N/A,,Drizzle,310,2014-03-30 04:15:00
12:35 AM,39.6,32.0,74,29.96,10.0,NW,5.8,-,N/A,,Light Drizzle,320,2014-03-30 04:35:00
12:55 AM,38.7,32.0,77,29.96,10.0,WNW,9.2,17.3,N/A,,Drizzle,300,2014-03-30 04:55:00
1:15 AM,37.9,32.0,79,29.97,10.0,NW,8.1,21.9,N/A,,Drizzle,310,2014-03-30 05:15:00
1:35 AM,37.6,32.0,80,29.97,10.0,WNW,6.9,16.1,N/A,,Drizzle,300,2014-03-30 05:35:00
1:55 AM,36.9,32.0,83,29.98,7.0,WNW,10.4,19.6,N/A,,Drizzle,290,2014-03-30 05:55:00
2:15 AM,36.7,32.0,83,29.97,10.0,WNW,9.2,-,N/A,,Drizzle,300,2014-03-30 06:15:00
2:35 AM,36.5,32.0,84,29.97,10.0,WNW,9.2,18.4,N/A,,Drizzle,300,2014-03-30 06:35:00
2:55 AM,36.1,32.0,85,29.97,7.0,WNW,15.0,20.7,0.01,,Drizzle,300,2014-03-30 06:55:00
3:15 AM,35.8,31.5,84,29.97,7.0,NW,15.0,20.7,N/A,,Drizzle,310,2014-03-30 07:15:00
3:35 AM,35.6,31.1,84,29.97,7.0,WNW,15.0,25.3,N/A,,Drizzle,290,2014-03-30 07:35:00
3:55 AM,35.2,30.9,84,29.97,10.0,WNW,17.3,24.2,N/A,Rain,Light Rain,290,2014-03-30 07:55:00
4:15 AM,35.6,31.1,84,29.97,10.0,WNW,12.7,21.9,N/A,Rain,Light Rain,290,2014-03-30 08:15:00
4:35 AM,35.6,31.1,84,29.97,10.0,WNW,6.9,20.7,N/A,,Light Drizzle,300,2014-03-30 08:35:00
4:55 AM,35.6,31.1,84,29.97,10.0,NW,9.2,-,N/A,,Light Drizzle,320,2014-03-30 08:55:00
5:15 AM,35.8,30.9,82,29.98,10.0,NW,8.1,21.9,N/A,Rain,Light Rain,310,2014-03-30 09:15:00
5:35 AM,35.8,30.7,82,29.97,10.0,WNW,9.2,18.4,N/A,,Light Drizzle,290,2014-03-30 09:35:00
5:55 AM,35.8,30.6,81,29.97,10.0,West,9.2,16.1,N/A,,Overcast,280,2014-03-30 09:55:00
6:15 AM,35.8,30.4,81,29.98,10.0,NW,4.6,16.1,N/A,,Overcast,320,2014-03-30 10:15:00
6:35 AM,36.1,30.0,78,29.99,10.0,WNW,5.8,18.4,N/A,,Overcast,300,2014-03-30 10:35:00
6:55 AM,36.1,29.8,78,29.99,10.0,WNW,12.7,23.0,N/A,,Overcast,290,2014-03-30 10:55:00
7:15 AM,36.0,29.7,78,29.99,10.0,Calm,Calm,-,N/A,,Overcast,0,2014-03-30 11:15:00
7:35 AM,35.8,28.4,75,30.00,10.0,WNW,11.5,25.3,N/A,,Mostly Cloudy,290,2014-03-30 11:35:00
7:55 AM,35.8,28.0,73,30.02,10.0,West,10.4,23.0,N/A,,Scattered Clouds,280,2014-03-30 11:55:00
8:15 AM,36.5,26.8,68,30.02,10.0,West,12.7,27.6,N/A,,Clear,280,2014-03-30 12:15:00
8:35 AM,37.4,25.9,63,30.04,10.0,WNW,16.1,25.3,N/A,,Clear,290,2014-03-30 12:35:00
8:55 AM,37.8,26.8,65,30.04,10.0,WNW,15.0,27.6,N/A,,Clear,290,2014-03-30 12:55:00
9:15 AM,38.3,26.6,63,30.05,10.0,WNW,13.8,25.3,N/A,,Clear,300,2014-03-30 13:15:00
9:35 AM,39.2,26.4,60,30.04,10.0,WNW,12.7,26.5,N/A,,Clear,290,2014-03-30 13:35:00
9:55 AM,40.1,25.7,56,30.05,10.0,NW,13.8,21.9,N/A,,Clear,310,2014-03-30 13:55:00
10:15 AM,41.2,24.6,52,30.06,10.0,WNW,15.0,24.2,N/A,,Clear,300,2014-03-30 14:15:00
10:35 AM,42.8,25.2,50,30.06,10.0,NW,15.0,25.3,N/A,,Clear,310,2014-03-30 14:35:00
10:55 AM,43.5,23.7,46,30.07,10.0,WNW,9.2,23.0,N/A,,Clear,300,2014-03-30 14:55:00
11:15 AM,44.6,23.7,44,30.08,10.0,WNW,16.1,29.9,N/A,,Clear,290,2014-03-30 15:15:00
11:35 AM,45.3,23.5,42,30.09,10.0,NW,18.4,25.3,N/A,,Clear,310,2014-03-30 15:35:00
11:55 AM,46.6,24.3,42,30.08,10.0,West,19.6,25.3,N/A,,Clear,280,2014-03-30 15:55:00
12:15 PM,47.8,23.9,39,30.09,10.0,WNW,17.3,24.2,N/A,,Clear,290,2014-03-30 16:15:00
12:35 PM,48.7,23.4,37,30.07,10.0,WNW,13.8,21.9,N/A,,Clear,290,2014-03-30 16:35:00
12:55 PM,49.8,23.2,35,30.06,10.0,West,11.5,23.0,N/A,,Clear,280,2014-03-30 16:55:00
1:15 PM,50.9,22.5,33,30.06,10.0,WNW,10.4,21.9,N/A,,Clear,300,2014-03-30 17:15:00
1:35 PM,51.6,21.2,30,30.06,10.0,NW,16.1,25.3,N/A,,Clear,320,2014-03-30 17:35:00
1:55 PM,52.3,22.1,31,30.06,10.0,WNW,11.5,19.6,N/A,,Clear,300,2014-03-30 17:55:00
2:15 PM,52.5,21.2,29,30.06,10.0,WNW,15.0,20.7,N/A,,Clear,290,2014-03-30 18:15:00
2:35 PM,53.4,21.2,28,30.06,10.0,WNW,8.1,17.3,N/A,,Clear,300,2014-03-30 18:35:00
2:55 PM,54.0,19.9,26,30.07,10.0,NW,10.4,20.7,N/A,,Clear,320,2014-03-30 18:55:00
3:15 PM,53.6,19.9,27,30.07,10.0,NW,11.5,26.5,N/A,,Clear,310,2014-03-30 19:15:00
3:35 PM,53.4,19.9,27,30.07,10.0,NNW,9.2,27.6,N/A,,Clear,340,2014-03-30 19:35:00
3:55 PM,53.6,19.8,27,30.07,10.0,North,8.1,23.0,N/A,,Clear,350,2014-03-30 19:55:00
4:15 PM,53.8,19.6,26,30.08,10.0,NW,12.7,21.9,N/A,,Clear,310,2014-03-30 20:15:00
4:35 PM,53.6,19.8,27,30.07,10.0,NW,6.9,20.7,N/A,,Clear,310,2014-03-30 20:35:00
4:55 PM,53.6,20.7,28,30.07,10.0,WNW,12.7,21.9,N/A,,Clear,300,2014-03-30 20:55:00
5:15 PM,54.1,20.1,26,30.07,10.0,WNW,15.0,19.6,N/A,,Clear,290,2014-03-30 21:15:00
5:35 PM,54.1,19.6,26,30.07,10.0,NW,8.1,21.9,N/A,,Clear,320,2014-03-30 21:35:00
5:55 PM,54.5,20.3,26,30.06,10.0,NNW,6.9,-,N/A,,Clear,330,2014-03-30 21:55:00
6:15 PM,54.3,20.3,26,30.06,10.0,NNW,9.2,16.1,N/A,,Clear,330,2014-03-30 22:15:00
6:35 PM,53.8,20.5,27,30.07,10.0,NW,12.7,17.3,N/A,,Clear,310,2014-03-30 22:35:00
6:55 PM,53.4,19.6,27,30.07,10.0,WNW,8.1,24.2,N/A,,Clear,300,2014-03-30 22:55:00
7:15 PM,52.7,19.0,27,30.07,10.0,NNW,4.6,16.1,N/A,,Clear,330,2014-03-30 23:15:00
7:35 PM,51.8,19.2,28,30.08,10.0,North,3.5,-,N/A,,Clear,10,2014-03-30 23:35:00
7:55 PM,50.5,19.6,30,30.09,10.0,WNW,4.6,-,N/A,,Clear,290,2014-03-30 23:55:00
8:15 PM,49.8,20.1,31,30.09,10.0,NNW,5.8,16.1,N/A,,Clear,330,2014-03-31 00:15:00
8:35 PM,49.5,19.9,31,30.09,10.0,NNW,10.4,-,N/A,,Clear,340,2014-03-31 00:35:00
8:55 PM,48.7,20.3,33,30.09,10.0,NW,5.8,-,N/A,,Clear,320,2014-03-31 00:55:00
9:15 PM,48.6,20.3,33,30.10,10.0,NNW,10.4,-,N/A,,Clear,340,2014-03-31 01:15:00
9:35 PM,48.6,20.3,33,30.11,10.0,NW,4.6,-,N/A,,Clear,320,2014-03-31 01:35:00
9:55 PM,48.6,20.1,33,30.11,10.0,NNW,5.8,-,N/A,,Clear,330,2014-03-31 01:55:00
10:15 PM,48.0,20.3,33,30.12,10.0,NW,5.8,-,N/A,,Clear,320,2014-03-31 02:15:00
10:35 PM,46.8,20.7,36,30.12,10.0,NW,6.9,-,N/A,,Clear,310,2014-03-31 02:35:00
10:55 PM,46.9,20.5,35,30.13,10.0,NNW,4.6,-,N/A,,Clear,330,2014-03-31 02:55:00
11:15 PM,47.3,20.3,34,30.13,10.0,NW,3.5,-,N/A,,Clear,310,2014-03-31 03:15:00
11:35 PM,45.9,21.0,37,30.13,10.0,NNW,4.6,-,N/A,,Clear,330,2014-03-31 03:35:00
11:55 PM,47.1,20.5,35,30.13,10.0,NW,5.8,-,N/A,,Clear,320,2014-03-31 03:55:00